| time (UTC) | temp F | wind direction | speed MPH | gust MPH | rain 1hr in | rain 24hr in | rain mn in | humidity % | barometer mb |
| 20260905040043 | 53 | 299 | 1.0 | 2.0 | 0.00 | 0.00 | 0.01 | 90 | 1014.6 |
| 20260905035536 | 53 | 93 | 0.0 | 0.0 | 0.00 | 0.00 | 0.01 | 89 | 1014.2 |
| 20260905035040 | 53 | 53 | 1.0 | 2.0 | 0.00 | 0.00 | 0.01 | 89 | 1014.2 |
| 20260905034540 | 53 | 10 | 1.0 | 1.0 | 0.00 | 0.00 | 0.01 | 89 | 1014.2 |
| 20260905034010 | 54 | 304 | 1.0 | 1.0 | 0.00 | 0.00 | 0.01 | 88 | 1014.6 |
| 20260905033513 | 54 | 158 | 0.0 | 0.0 | 0.00 | 0.00 | 0.01 | 88 | 1014.2 |
| 20260905033007 | 54 | 347 | 0.0 | 2.0 | 0.00 | 0.00 | 0.01 | 88 | 1014.6 |
| 20260905032501 | 54 | 155 | 1.0 | 1.0 | 0.00 | 0.00 | 0.01 | 87 | 1014.6 |
| 20260905032001 | 54 | 55 | 3.0 | 5.0 | 0.00 | 0.00 | 0.01 | 87 | 1014.2 |
| 20260905031458 | 54 | 290 | 2.0 | 2.0 | 0.00 | 0.00 | 0.01 | 87 | 1014.6 |
| 20260905031000 | 54 | 54 | 2.0 | 2.0 | 0.00 | 0.00 | 0.01 | 86 | 1014.6 |
| 20260905030459 | 54 | 350 | 1.0 | 2.0 | 0.00 | 0.00 | 0.01 | 86 | 1014.2 |
| 20260905025957 | 54 | 248 | 1.0 | 2.0 | 0.00 | 0.00 | 0.01 | 86 | 1014.6 |
| 20260905025457 | 55 | 215 | 1.0 | 2.0 | 0.00 | 0.00 | 0.01 | 86 | 1014.2 |
| 20260905024957 | 55 | 201 | 1.0 | 2.0 | 0.00 | 0.00 | 0.01 | 86 | 1014.2 |
| 20260905024456 | 55 | 38 | 1.0 | 1.0 | 0.00 | 0.00 | 0.01 | 85 | 1013.9 |
| 20260905023954 | 55 | 60 | 0.0 | 0.0 | 0.00 | 0.00 | 0.01 | 84 | 1013.9 |
| 20260905023353 | 55 | 167 | 0.0 | 0.0 | 0.00 | 0.00 | 0.01 | 84 | 1013.5 |
| 20260905022854 | 55 | 205 | 0.0 | 1.0 | 0.00 | 0.00 | 0.01 | 84 | 1013.5 |
| 20260905022351 | 56 | 16 | 1.0 | 3.0 | 0.00 | 0.00 | 0.01 | 84 | 1013.5 |
| 20260905021852 | 56 | 214 | 0.0 | 0.0 | 0.00 | 0.00 | 0.01 | 84 | 1013.9 |
| 20260905021355 | 56 | 217 | 0.0 | 0.0 | 0.00 | 0.00 | 0.01 | 83 | 1013.5 |
| 20260905020852 | 57 | 224 | 0.0 | 1.0 | 0.00 | 0.00 | 0.01 | 83 | 1013.5 |
| 20260905020350 | 57 | 197 | 0.0 | 0.0 | 0.00 | 0.00 | 0.01 | 82 | 1013.5 |
| 20260905015848 | 57 | 241 | 0.0 | 1.0 | 0.00 | 0.00 | 0.01 | 82 | 1013.5 |
| 20260905015349 | 58 | 225 | 1.0 | 2.0 | 0.00 | 0.00 | 0.01 | 81 | 1013.5 |
| 20260905014848 | 58 | 188 | 0.0 | 1.0 | 0.00 | 0.00 | 0.01 | 79 | 1013.5 |
| 20260905014345 | 58 | 185 | 0.0 | 1.0 | 0.00 | 0.00 | 0.01 | 79 | 1013.5 |
| 20260905013845 | 58 | 313 | 3.0 | 3.0 | 0.00 | 0.00 | 0.01 | 78 | 1013.9 |
| 20260905013344 | 58 | 281 | 0.0 | 1.0 | 0.00 | 0.00 | 0.01 | 78 | 1013.5 |
| 20260905012843 | 59 | 260 | 1.0 | 1.0 | 0.00 | 0.00 | 0.01 | 77 | 1013.5 |
| 20260905012343 | 59 | 271 | 1.0 | 2.0 | 0.00 | 0.00 | 0.01 | 77 | 1013.5 |
| 20260905011843 | 59 | 255 | 1.0 | 1.0 | 0.00 | 0.00 | 0.01 | 77 | 1013.5 |
| 20260905011343 | 59 | 223 | 1.0 | 1.0 | 0.00 | 0.00 | 0.01 | 78 | 1013.2 |
| 20260905010841 | 59 | 263 | 1.0 | 2.0 | 0.00 | 0.00 | 0.01 | 76 | 1013.5 |
| 20260905010340 | 59 | 257 | 1.0 | 1.0 | 0.00 | 0.00 | 0.01 | 75 | 1013.2 |
| 20260905005841 | 59 | 297 | 2.0 | 2.0 | 0.00 | 0.00 | 0.01 | 74 | 1013.2 |
| 20260905005339 | 59 | 185 | 0.0 | 1.0 | 0.00 | 0.00 | 0.01 | 74 | 1013.2 |
| 20260905004839 | 59 | 282 | 3.0 | 3.0 | 0.00 | 0.00 | 0.01 | 75 | 1013.2 |
| 20260905004337 | 58 | 295 | 3.0 | 5.0 | 0.00 | 0.00 | 0.01 | 75 | 1012.9 |
| 20260905003837 | 58 | 323 | 2.0 | 2.0 | 0.00 | 0.00 | 0.01 | 76 | 1012.9 |
| 20260905003338 | 58 | 229 | 2.0 | 3.0 | 0.00 | 0.00 | 0.01 | 77 | 1012.9 |
| 20260905002834 | 58 | 269 | 2.0 | 2.0 | 0.00 | 0.00 | 0.01 | 76 | 1012.9 |
| 20260905002334 | 58 | 103 | 2.0 | 2.0 | 0.00 | 0.00 | 0.01 | 76 | 1012.9 |
| 20260905001834 | 58 | 216 | 1.0 | 1.0 | 0.00 | 0.00 | 0.01 | 76 | 1012.9 |
| 20260905001333 | 58 | 282 | 1.0 | 5.0 | 0.00 | 0.00 | 0.01 | 77 | 1012.9 |
| 20260905000832 | 58 | 285 | 3.0 | 3.0 | 0.00 | 0.00 | 0.01 | 77 | 1012.9 |
| 20260905000329 | 57 | 250 | 1.0 | 2.0 | 0.00 | 0.00 | 0.01 | 77 | 1012.9 |
| 20260904235829 | 57 | 265 | 1.0 | 2.0 | 0.00 | 0.00 | 0.01 | 78 | 1012.9 |
| 20260904235329 | 57 | 285 | 3.0 | 3.0 | 0.00 | 0.00 | 0.01 | 78 | 1012.9 |
| 20260904234829 | 57 | 251 | 1.0 | 2.0 | 0.00 | 0.00 | 0.01 | 79 | 1012.9 |
| 20260904234328 | 57 | 254 | 1.0 | 2.0 | 0.00 | 0.00 | 0.01 | 79 | 1012.9 |
| 20260904233827 | 57 | 240 | 1.0 | 2.0 | 0.00 | 0.00 | 0.01 | 79 | 1012.5 |
| 20260904233327 | 57 | 227 | 1.0 | 2.0 | 0.00 | 0.00 | 0.01 | 79 | 1012.5 |
| 20260904232826 | 57 | 295 | 1.0 | 1.0 | 0.00 | 0.00 | 0.01 | 79 | 1012.5 |
| 20260904232325 | 57 | 224 | 1.0 | 1.0 | 0.00 | 0.00 | 0.01 | 80 | 1012.5 |
| 20260904231825 | 57 | 238 | 0.0 | 0.0 | 0.00 | 0.00 | 0.01 | 80 | 1012.5 |
| 20260904231324 | 57 | 293 | 2.0 | 2.0 | 0.00 | 0.00 | 0.01 | 79 | 1012.5 |
| 20260904230823 | 57 | 290 | 2.0 | 5.0 | 0.00 | 0.00 | 0.01 | 79 | 1012.5 |
| 20260904230324 | 57 | 254 | 0.0 | 1.0 | 0.00 | 0.00 | 0.01 | 80 | 1012.2 |
| 20260904225822 | 57 | 237 | 1.0 | 2.0 | 0.00 | 0.00 | 0.01 | 81 | 1012.2 |
| 20260904225322 | 57 | 298 | 0.0 | 1.0 | 0.00 | 0.00 | 0.01 | 79 | 1012.2 |
| 20260904224823 | 57 | 221 | 0.0 | 1.0 | 0.00 | 0.00 | 0.01 | 78 | 1012.2 |
| 20260904224323 | 57 | 226 | 0.0 | 1.0 | 0.00 | 0.00 | 0.01 | 78 | 1012.2 |
| 20260904223822 | 57 | 283 | 3.0 | 3.0 | 0.00 | 0.00 | 0.01 | 78 | 1011.9 |
| 20260904223323 | 57 | 247 | 1.0 | 1.0 | 0.00 | 0.00 | 0.01 | 77 | 1011.9 |
| 20260904222819 | 57 | 246 | 1.0 | 2.0 | 0.00 | 0.00 | 0.01 | 77 | 1011.9 |
| 20260904222323 | 57 | 280 | 3.0 | 3.0 | 0.00 | 0.00 | 0.01 | 77 | 1011.9 |
| 20260904221821 | 57 | 267 | 2.0 | 3.0 | 0.00 | 0.00 | 0.01 | 77 | 1011.9 |
| 20260904221318 | 57 | 257 | 1.0 | 1.0 | 0.00 | 0.00 | 0.01 | 77 | 1011.5 |
| 20260904220818 | 57 | 309 | 3.0 | 5.0 | 0.00 | 0.00 | 0.01 | 76 | 1011.5 |
| 20260904220320 | 57 | 216 | 0.0 | 1.0 | 0.00 | 0.00 | 0.01 | 76 | 1011.5 |
| 20260904215818 | 57 | 221 | 1.0 | 2.0 | 0.00 | 0.00 | 0.01 | 76 | 1011.9 |
| 20260904215318 | 57 | 228 | 2.0 | 2.0 | 0.00 | 0.00 | 0.01 | 76 | 1011.5 |
| 20260904214816 | 57 | 254 | 3.0 | 5.0 | 0.00 | 0.00 | 0.01 | 76 | 1011.5 |
| 20260904214318 | 57 | 227 | 0.0 | 1.0 | 0.00 | 0.00 | 0.01 | 77 | 1011.9 |
| 20260904213816 | 57 | 232 | 0.0 | 1.0 | 0.00 | 0.00 | 0.01 | 77 | 1011.5 |
| 20260904213316 | 57 | 236 | 0.0 | 0.0 | 0.00 | 0.00 | 0.01 | 76 | 1011.9 |
| 20260904212817 | 57 | 262 | 1.0 | 2.0 | 0.00 | 0.00 | 0.01 | 76 | 1011.9 |
| 20260904212324 | 58 | 265 | 0.0 | 1.0 | 0.00 | 0.00 | 0.01 | 76 | 1011.5 |
| 20260904211815 | 58 | 267 | 2.0 | 2.0 | 0.00 | 0.00 | 0.01 | 76 | 1011.5 |
| 20260904211315 | 58 | 226 | 0.0 | 0.0 | 0.00 | 0.00 | 0.01 | 76 | 1011.5 |
| 20260904210816 | 58 | 231 | 0.0 | 1.0 | 0.00 | 0.00 | 0.01 | 75 | 1011.5 |
| 20260904210315 | 58 | 229 | 0.0 | 0.0 | 0.00 | 0.00 | 0.01 | 76 | 1011.5 |
| 20260904205815 | 58 | 23 | 0.0 | 1.0 | 0.00 | 0.00 | 0.01 | 76 | 1011.2 |
| 20260904205316 | 58 | 8 | 1.0 | 1.0 | 0.00 | 0.00 | 0.01 | 75 | 1011.2 |
| 20260904204815 | 58 | 252 | 1.0 | 2.0 | 0.00 | 0.00 | 0.01 | 75 | 1011.2 |
| 20260904204315 | 58 | 21 | 3.0 | 5.0 | 0.00 | 0.00 | 0.01 | 75 | 1010.8 |
| 20260904203813 | 58 | 191 | 2.0 | 3.0 | 0.00 | 0.00 | 0.01 | 76 | 1011.2 |
| 20260904203314 | 58 | 257 | 1.0 | 1.0 | 0.00 | 0.00 | 0.01 | 77 | 1010.8 |
| 20260904202815 | 58 | 269 | 2.0 | 2.0 | 0.00 | 0.00 | 0.01 | 76 | 1010.8 |
| 20260904202316 | 58 | 208 | 1.0 | 2.0 | 0.00 | 0.00 | 0.01 | 76 | 1010.8 |
| 20260904201814 | 58 | 235 | 3.0 | 3.0 | 0.00 | 0.00 | 0.01 | 76 | 1010.8 |
| 20260904201314 | 58 | 50 | 1.0 | 5.0 | 0.00 | 0.00 | 0.01 | 75 | 1010.8 |
| 20260904200813 | 58 | 244 | 2.0 | 3.0 | 0.00 | 0.00 | 0.01 | 75 | 1010.8 |
| 20260904200313 | 58 | 231 | 0.0 | 1.0 | 0.00 | 0.00 | 0.01 | 75 | 1010.8 |
| 20260904195814 | 58 | 257 | 0.0 | 1.0 | 0.00 | 0.00 | 0.01 | 75 | 1010.8 |
| 20260904195312 | 58 | 307 | 3.0 | 6.0 | 0.00 | 0.00 | 0.01 | 74 | 1010.8 |
| 20260904194813 | 58 | 358 | 0.0 | 1.0 | 0.00 | 0.00 | 0.01 | 75 | 1010.8 |
| 20260904194312 | 58 | 70 | 2.0 | 2.0 | 0.00 | 0.00 | 0.01 | 75 | 1010.5 |
| 20260904193813 | 58 | 96 | 3.0 | 5.0 | 0.00 | 0.00 | 0.01 | 75 | 1010.5 |
| 20260904193313 | 58 | 344 | 2.0 | 5.0 | 0.00 | 0.00 | 0.01 | 74 | 1010.5 |
| 20260904192812 | 57 | 274 | 3.0 | 7.0 | 0.00 | 0.00 | 0.01 | 75 | 1010.2 |
| 20260904192313 | 57 | 325 | 1.0 | 1.0 | 0.00 | 0.00 | 0.01 | 77 | 1010.2 |
| 20260904191813 | 57 | 263 | 0.0 | 2.0 | 0.00 | 0.00 | 0.01 | 77 | 1010.2 |
| 20260904191311 | 57 | 247 | 2.0 | 2.0 | 0.00 | 0.00 | 0.01 | 79 | 1010.2 |
| 20260904190822 | 57 | 228 | 0.0 | 1.0 | 0.00 | 0.00 | 0.01 | 79 | 1010.2 |
| 20260904190314 | 57 | 252 | 4.0 | 6.0 | 0.00 | 0.00 | 0.01 | 79 | 1010.2 |
| 20260904185812 | 57 | 292 | 3.0 | 5.0 | 0.00 | 0.00 | 0.01 | 80 | 1010.2 |
| 20260904185311 | 57 | 56 | 2.0 | 2.0 | 0.00 | 0.00 | 0.01 | 81 | 1010.2 |
| 20260904184812 | 57 | 165 | 1.0 | 2.0 | 0.00 | 0.00 | 0.01 | 81 | 1010.2 |
| 20260904184313 | 56 | 45 | 1.0 | 2.0 | 0.00 | 0.00 | 0.01 | 82 | 1010.5 |
| 20260904183815 | 56 | 38 | 3.0 | 3.0 | 0.00 | 0.00 | 0.01 | 82 | 1010.5 |
| 20260904183310 | 56 | 161 | 2.0 | 3.0 | 0.00 | 0.00 | 0.01 | 83 | 1010.5 |
| 20260904182812 | 56 | 26 | 1.0 | 2.0 | 0.00 | 0.00 | 0.01 | 84 | 1010.5 |
| 20260904182310 | 56 | 224 | 0.0 | 1.0 | 0.00 | 0.00 | 0.01 | 83 | 1010.5 |
| 20260904181814 | 55 | 197 | 2.0 | 2.0 | 0.00 | 0.00 | 0.01 | 83 | 1010.5 |
| 20260904181312 | 55 | 49 | 4.0 | 6.0 | 0.00 | 0.00 | 0.01 | 83 | 1010.5 |
| 20260904180811 | 55 | 332 | 1.0 | 3.0 | 0.00 | 0.00 | 0.01 | 84 | 1010.2 |
| 20260904180313 | 55 | 106 | 3.0 | 3.0 | 0.00 | 0.00 | 0.01 | 84 | 1010.2 |
| 20260904175813 | 55 | 252 | 1.0 | 2.0 | 0.00 | 0.00 | 0.01 | 86 | 1010.2 |
| 20260904175310 | 55 | 207 | 1.0 | 2.0 | 0.00 | 0.00 | 0.01 | 86 | 1010.2 |
| 20260904174813 | 54 | 98 | 3.0 | 5.0 | 0.00 | 0.00 | 0.01 | 85 | 1010.2 |
| 20260904174313 | 54 | 97 | 3.0 | 5.0 | 0.00 | 0.00 | 0.01 | 87 | 1010.2 |
| 20260904173813 | 54 | 55 | 2.0 | 2.0 | 0.00 | 0.00 | 0.01 | 88 | 1010.2 |
| 20260904173315 | 54 | 108 | 2.0 | 3.0 | 0.00 | 0.00 | 0.01 | 88 | 1010.2 |
| 20260904172811 | 54 | 201 | 1.0 | 1.0 | 0.00 | 0.00 | 0.01 | 89 | 1010.2 |
| 20260904172318 | 54 | 48 | 2.0 | 3.0 | 0.00 | 0.00 | 0.00 | 87 | 1010.2 |
| 20260904171819 | 53 | 278 | 2.0 | 2.0 | 0.00 | 0.00 | 0.00 | 86 | 1010.2 |
| 20260904171318 | 53 | 43 | 1.0 | 3.0 | 0.00 | 0.00 | 0.00 | 86 | 1010.2 |
| 20260904170818 | 53 | 164 | 0.0 | 1.0 | 0.00 | 0.00 | 0.00 | 86 | 1010.2 |
| 20260904170322 | 53 | 49 | 1.0 | 2.0 | 0.00 | 0.00 | 0.00 | 88 | 1010.2 |
| 20260904165817 | 53 | 132 | 2.0 | 3.0 | 0.00 | 0.00 | 0.00 | 87 | 1010.2 |
| 20260904165317 | 53 | 31 | 2.0 | 2.0 | 0.00 | 0.00 | 0.00 | 87 | 1010.2 |
| 20260904164816 | 53 | 81 | 2.0 | 2.0 | 0.00 | 0.00 | 0.00 | 87 | 1010.2 |
| 20260904164317 | 53 | 15 | 3.0 | 3.0 | 0.00 | 0.00 | 0.00 | 87 | 1010.2 |
| 20260904163816 | 53 | 55 | 2.0 | 3.0 | 0.00 | 0.00 | 0.00 | 87 | 1009.8 |
| 20260904163317 | 53 | 131 | 0.0 | 1.0 | 0.00 | 0.00 | 0.00 | 88 | 1010.2 |
| 20260904162815 | 53 | 34 | 2.0 | 3.0 | 0.00 | 0.00 | 0.00 | 88 | 1010.2 |
| 20260904162315 | 53 | 71 | 2.0 | 3.0 | 0.00 | 0.00 | 0.00 | 87 | 1010.2 |
| 20260904161816 | 53 | 180 | 1.0 | 2.0 | 0.00 | 0.00 | 0.00 | 87 | 1010.2 |
| 20260904161315 | 53 | 182 | 0.0 | 1.0 | 0.00 | 0.00 | 0.00 | 86 | 1009.8 |
| 20260904160814 | 53 | 301 | 3.0 | 6.0 | 0.00 | 0.00 | 0.00 | 83 | 1009.8 |
| 20260904160314 | 53 | 117 | 3.0 | 3.0 | 0.00 | 0.00 | 0.00 | 81 | 1009.8 |
| 20260904155813 | 53 | 38 | 1.0 | 2.0 | 0.00 | 0.00 | 0.00 | 80 | 1009.8 |
| 20260904155313 | 53 | 39 | 2.0 | 5.0 | 0.00 | 0.00 | 0.00 | 79 | 1009.8 |
| 20260904154814 | 53 | 160 | 0.0 | 1.0 | 0.00 | 0.00 | 0.00 | 76 | 1009.8 |
| 20260904154315 | 53 | 54 | 0.0 | 1.0 | 0.00 | 0.00 | 0.00 | 75 | 1009.5 |
| 20260904153741 | 53 | 187 | 0.0 | 0.0 | 0.00 | 0.00 | 0.00 | 75 | 1009.5 |
| 20260904153240 | 53 | 45 | 0.0 | 1.0 | 0.00 | 0.00 | 0.00 | 74 | 1009.1 |
| 20260904152740 | 53 | 96 | 1.0 | 1.0 | 0.00 | 0.00 | 0.00 | 74 | 1009.5 |
| 20260904152240 | 53 | 252 | 0.0 | 1.0 | 0.00 | 0.00 | 0.00 | 74 | 1009.5 |
| 20260904151737 | 53 | 70 | 0.0 | 1.0 | 0.00 | 0.00 | 0.00 | 73 | 1009.1 |
| 20260904151241 | 53 | 130 | 1.0 | 1.0 | 0.00 | 0.00 | 0.00 | 73 | 1009.1 |
| 20260904150741 | 53 | 245 | 0.0 | 1.0 | 0.00 | 0.00 | 0.00 | 73 | 1009.1 |
| 20260904150239 | 53 | 123 | 0.0 | 0.0 | 0.00 | 0.00 | 0.00 | 73 | 1009.1 |
| 20260904145738 | 53 | 175 | 0.0 | 1.0 | 0.00 | 0.00 | 0.00 | 73 | 1008.8 |
| 20260904145238 | 53 | 13 | 1.0 | 1.0 | 0.00 | 0.00 | 0.00 | 73 | 1008.8 |
| 20260904144738 | 53 | 51 | 0.0 | 1.0 | 0.00 | 0.00 | 0.00 | 73 | 1008.5 |
| 20260904144238 | 53 | 4 | 0.0 | 1.0 | 0.00 | 0.00 | 0.00 | 73 | 1008.8 |
| 20260904143737 | 53 | 119 | 0.0 | 0.0 | 0.00 | 0.00 | 0.00 | 72 | 1008.5 |
| 20260904143238 | 53 | 169 | 0.0 | 0.0 | 0.00 | 0.00 | 0.00 | 71 | 1008.5 |
| 20260904142716 | 53 | 289 | 1.0 | 1.0 | 0.00 | 0.00 | 0.00 | 70 | 1008.1 |
| 20260904142142 | 52 | 221 | 0.0 | 1.0 | 0.00 | 0.00 | 0.00 | 70 | 1008.5 |
| 20260904141641 | 52 | 294 | 2.0 | 2.0 | 0.00 | 0.00 | 0.00 | 70 | 1008.1 |
| 20260904141136 | 52 | 292 | 3.0 | 5.0 | 0.00 | 0.00 | 0.00 | 69 | 1008.1 |
| 20260904140641 | 52 | 237 | 2.0 | 2.0 | 0.00 | 0.00 | 0.00 | 70 | 1007.8 |
| 20260904140142 | 52 | 258 | 2.0 | 3.0 | 0.00 | 0.00 | 0.00 | 70 | 1007.8 |
| 20260904135640 | 51 | 282 | 2.0 | 2.0 | 0.00 | 0.00 | 0.00 | 71 | 1007.8 |
| 20260904135143 | 51 | 286 | 4.0 | 6.0 | 0.00 | 0.00 | 0.00 | 71 | 1007.8 |
| 20260904134640 | 51 | 280 | 2.0 | 3.0 | 0.00 | 0.00 | 0.00 | 72 | 1007.5 |
| 20260904134126 | 51 | 250 | 2.0 | 2.0 | 0.00 | 0.00 | 0.00 | 72 | 1007.5 |
| 20260904133626 | 50 | 247 | 1.0 | 1.0 | 0.00 | 0.00 | 0.00 | 72 | 1007.5 |
| 20260904133127 | 50 | 262 | 2.0 | 2.0 | 0.00 | 0.00 | 0.00 | 72 | 1007.5 |
| 20260904132629 | 49 | 253 | 3.0 | 3.0 | 0.00 | 0.00 | 0.00 | 72 | 1007.1 |
| 20260904132128 | 49 | 238 | 1.0 | 2.0 | 0.00 | 0.00 | 0.00 | 73 | 1007.5 |
| 20260904131626 | 48 | 314 | 2.0 | 3.0 | 0.00 | 0.00 | 0.00 | 74 | 1007.5 |
| 20260904131125 | 48 | 292 | 1.0 | 1.0 | 0.00 | 0.00 | 0.00 | 75 | 1007.1 |
| 20260904130625 | 47 | 252 | 0.0 | 0.0 | 0.00 | 0.00 | 0.00 | 77 | 1007.1 |
| 20260904130125 | 47 | 301 | 0.0 | 1.0 | 0.00 | 0.00 | 0.00 | 79 | 1007.1 |
| 20260904125624 | 47 | 218 | 0.0 | 0.0 | 0.00 | 0.00 | 0.00 | 79 | 1007.1 |
| 20260904125123 | 47 | 220 | 0.0 | 0.0 | 0.00 | 0.00 | 0.00 | 80 | 1007.1 |
| 20260904124623 | 47 | 213 | 0.0 | 0.0 | 0.00 | 0.00 | 0.00 | 81 | 1007.1 |
| 20260904124123 | 47 | 223 | 0.0 | 0.0 | 0.00 | 0.00 | 0.00 | 81 | 1007.1 |
| 20260904123622 | 47 | 223 | 0.0 | 0.0 | 0.00 | 0.00 | 0.00 | 81 | 1007.1 |
| 20260904123124 | 48 | 221 | 0.0 | 0.0 | 0.00 | 0.00 | 0.00 | 81 | 1007.1 |
| 20260904122623 | 48 | 275 | 1.0 | 1.0 | 0.00 | 0.00 | 0.00 | 80 | 1006.8 |
| 20260904122121 | 48 | 221 | 0.0 | 0.0 | 0.00 | 0.00 | 0.00 | 81 | 1006.8 |
| 20260904121620 | 48 | 249 | 0.0 | 1.0 | 0.00 | 0.00 | 0.00 | 80 | 1006.8 |
| 20260904121123 | 48 | 250 | 0.0 | 1.0 | 0.00 | 0.00 | 0.00 | 80 | 1006.8 |
| 20260904120619 | 48 | 279 | 0.0 | 1.0 | 0.00 | 0.00 | 0.00 | 80 | 1006.8 |
| 20260904120120 | 48 | 233 | 1.0 | 1.0 | 0.00 | 0.00 | 0.00 | 79 | 1006.8 |
| 20260904115618 | 48 | 278 | 1.0 | 2.0 | 0.00 | 0.00 | 0.00 | 79 | 1006.8 |
| 20260904115119 | 48 | 217 | 0.0 | 0.0 | 0.00 | 0.00 | 0.00 | 79 | 1006.8 |
| 20260904114618 | 48 | 255 | 0.0 | 1.0 | 0.00 | 0.00 | 0.00 | 79 | 1006.8 |
| 20260904114117 | 48 | 211 | 0.0 | 0.0 | 0.00 | 0.00 | 0.00 | 80 | 1006.8 |
| 20260904113617 | 48 | 213 | 0.0 | 0.0 | 0.00 | 0.00 | 0.00 | 80 | 1006.8 |
| 20260904113116 | 48 | 193 | 0.0 | 0.0 | 0.00 | 0.00 | 0.00 | 79 | 1006.4 |
| 20260904112617 | 48 | 187 | 0.0 | 0.0 | 0.00 | 0.00 | 0.00 | 79 | 1006.4 |
| 20260904112116 | 48 | 185 | 0.0 | 1.0 | 0.00 | 0.00 | 0.00 | 79 | 1006.4 |
| 20260904111615 | 48 | 176 | 0.0 | 0.0 | 0.00 | 0.00 | 0.00 | 80 | 1006.4 |
| 20260904111115 | 48 | 186 | 0.0 | 0.0 | 0.00 | 0.00 | 0.00 | 80 | 1006.4 |
| 20260904110636 | 48 | 177 | 0.0 | 0.0 | 0.00 | 0.00 | 0.00 | 80 | 1006.4 |
| 20260904110145 | 48 | 218 | 0.0 | 1.0 | 0.00 | 0.00 | 0.00 | 79 | 1006.4 |
| 20260904105637 | 48 | 147 | 1.0 | 1.0 | 0.00 | 0.00 | 0.00 | 77 | 1006.4 |
| 20260904105142 | 49 | 190 | 0.0 | 0.0 | 0.00 | 0.00 | 0.00 | 76 | 1006.1 |
| 20260904104714 | 49 | 176 | 0.0 | 0.0 | 0.00 | 0.00 | 0.00 | 75 | 1006.1 |
| 20260904104215 | 49 | 194 | 0.0 | 0.0 | 0.00 | 0.00 | 0.00 | 76 | 1006.1 |
| 20260904103713 | 49 | 202 | 0.0 | 0.0 | 0.00 | 0.00 | 0.00 | 77 | 1005.8 |
| 20260904103240 | 49 | 190 | 0.0 | 0.0 | 0.00 | 0.00 | 0.00 | 76 | 1006.1 |
| 20260904102736 | 48 | 154 | 0.0 | 0.0 | 0.00 | 0.00 | 0.00 | 75 | 1005.8 |
| 20260904102239 | 48 | 213 | 0.0 | 0.0 | 0.00 | 0.00 | 0.00 | 73 | 1005.8 |
| 20260904101738 | 48 | 218 | 0.0 | 0.0 | 0.00 | 0.00 | 0.00 | 74 | 1005.8 |
| 20260904101312 | 48 | 223 | 0.0 | 0.0 | 0.00 | 0.00 | 0.00 | 75 | 1005.8 |
| 20260904100814 | 48 | 214 | 0.0 | 0.0 | 0.00 | 0.00 | 0.00 | 76 | 1005.8 |
| 20260904100310 | 48 | 231 | 0.0 | 0.0 | 0.00 | 0.00 | 0.00 | 77 | 1005.8 |
| 20260904095738 | 48 | 215 | 0.0 | 0.0 | 0.00 | 0.00 | 0.00 | 76 | 1005.4 |
| 20260904095240 | 48 | 239 | 0.0 | 1.0 | 0.00 | 0.00 | 0.00 | 78 | 1005.4 |
| 20260904094741 | 48 | 284 | 1.0 | 2.0 | 0.00 | 0.00 | 0.00 | 78 | 1005.4 |
| 20260904094240 | 48 | 255 | 0.0 | 1.0 | 0.00 | 0.00 | 0.00 | 78 | 1005.4 |
| 20260904093741 | 48 | 253 | 1.0 | 1.0 | 0.00 | 0.00 | 0.00 | 78 | 1005.4 |
| 20260904093240 | 48 | 219 | 0.0 | 0.0 | 0.00 | 0.00 | 0.00 | 77 | 1005.8 |
| 20260904092742 | 48 | 217 | 0.0 | 0.0 | 0.00 | 0.00 | 0.00 | 79 | 1005.4 |
| 20260904092311 | 48 | 192 | 0.0 | 0.0 | 0.00 | 0.00 | 0.00 | 79 | 1005.8 |
| 20260904091814 | 48 | 189 | 0.0 | 0.0 | 0.00 | 0.00 | 0.00 | 78 | 1005.8 |
| 20260904091312 | 48 | 203 | 0.0 | 0.0 | 0.00 | 0.00 | 0.00 | 76 | 1005.4 |
| 20260904090812 | 48 | 191 | 0.0 | 0.0 | 0.00 | 0.00 | 0.00 | 76 | 1005.4 |
| 20260904090242 | 48 | 210 | 0.0 | 0.0 | 0.00 | 0.00 | 0.00 | 76 | 1005.8 |
| 20260904085737 | 47 | 212 | 0.0 | 0.0 | 0.00 | 0.00 | 0.00 | 78 | 1005.8 |
| 20260904085236 | 47 | 211 | 0.0 | 0.0 | 0.00 | 0.00 | 0.00 | 79 | 1005.4 |
| 20260904084737 | 47 | 248 | 0.0 | 0.0 | 0.00 | 0.00 | 0.00 | 78 | 1005.1 |
| 20260904084237 | 47 | 237 | 0.0 | 1.0 | 0.00 | 0.00 | 0.00 | 79 | 1005.1 |
| 20260904083736 | 48 | 235 | 1.0 | 1.0 | 0.00 | 0.00 | 0.00 | 80 | 1005.8 |
| 20260904083235 | 48 | 252 | 1.0 | 1.0 | 0.00 | 0.00 | 0.00 | 78 | 1005.8 |
| 20260904082728 | 48 | 221 | 0.0 | 0.0 | 0.00 | 0.00 | 0.00 | 81 | 1005.8 |
| 20260904082228 | 48 | 257 | 0.0 | 0.0 | 0.00 | 0.00 | 0.00 | 81 | 1005.8 |
| 20260904081730 | 48 | 249 | 0.0 | 1.0 | 0.00 | 0.00 | 0.00 | 80 | 1005.8 |
| 20260904081226 | 48 | 269 | 1.0 | 1.0 | 0.00 | 0.00 | 0.00 | 80 | 1005.8 |
| 20260904080726 | 48 | 257 | 0.0 | 0.0 | 0.00 | 0.00 | 0.00 | 79 | 1005.8 |
| 20260904080227 | 48 | 251 | 1.0 | 1.0 | 0.00 | 0.00 | 0.00 | 78 | 1005.8 |
| 20260904075726 | 49 | 247 | 0.0 | 1.0 | 0.00 | 0.00 | 0.00 | 78 | 1005.8 |
| 20260904075227 | 49 | 226 | 0.0 | 1.0 | 0.00 | 0.00 | 0.00 | 78 | 1005.8 |
| 20260904074726 | 49 | 234 | 0.0 | 0.0 | 0.00 | 0.00 | 0.00 | 78 | 1005.8 |
| 20260904074225 | 49 | 229 | 0.0 | 0.0 | 0.00 | 0.00 | 0.00 | 78 | 1005.8 |
| 20260904073725 | 49 | 268 | 0.0 | 0.0 | 0.00 | 0.00 | 0.00 | 78 | 1005.8 |
| 20260904073225 | 49 | 170 | 0.0 | 0.0 | 0.00 | 0.00 | 0.00 | 77 | 1005.8 |
| 20260904072724 | 50 | 79 | 0.0 | 0.0 | 0.00 | 0.00 | 0.00 | 77 | 1005.8 |
| 20260904072226 | 50 | 154 | 0.0 | 0.0 | 0.00 | 0.00 | 0.00 | 77 | 1005.8 |
| 20260904071725 | 50 | 206 | 0.0 | 1.0 | 0.00 | 0.00 | 0.00 | 76 | 1005.4 |
| 20260904071224 | 50 | 207 | 0.0 | 0.0 | 0.00 | 0.00 | 0.00 | 76 | 1005.8 |
| 20260904070724 | 50 | 185 | 0.0 | 0.0 | 0.00 | 0.00 | 0.00 | 75 | 1005.4 |
| 20260904070224 | 50 | 171 | 0.0 | 0.0 | 0.00 | 0.00 | 0.00 | 75 | 1005.4 |
| 20260904065724 | 50 | 223 | 0.0 | 1.0 | 0.00 | 0.00 | 0.00 | 75 | 1005.4 |
| 20260904065223 | 50 | 207 | 0.0 | 0.0 | 0.00 | 0.00 | 0.00 | 75 | 1005.4 |
| 20260904064722 | 51 | 200 | 0.0 | 1.0 | 0.00 | 0.00 | 0.00 | 75 | 1005.1 |
| 20260904064225 | 51 | 201 | 0.0 | 1.0 | 0.00 | 0.00 | 0.00 | 75 | 1005.4 |
| 20260904063722 | 51 | 240 | 0.0 | 0.0 | 0.00 | 0.00 | 0.00 | 74 | 1005.1 |
| 20260904063226 | 51 | 185 | 0.0 | 0.0 | 0.00 | 0.00 | 0.00 | 74 | 1005.1 |
| 20260904062723 | 51 | 210 | 0.0 | 0.0 | 0.00 | 0.00 | 0.00 | 74 | 1005.1 |
| 20260904062224 | 51 | 203 | 0.0 | 0.0 | 0.00 | 0.00 | 0.00 | 74 | 1005.1 |
| 20260904061722 | 51 | 189 | 0.0 | 0.0 | 0.00 | 0.00 | 0.00 | 74 | 1004.7 |
| 20260904061221 | 52 | 197 | 0.0 | 1.0 | 0.00 | 0.00 | 0.00 | 74 | 1004.7 |
| 20260904060720 | 52 | 217 | 0.0 | 1.0 | 0.00 | 0.00 | 0.00 | 74 | 1004.7 |
| 20260904060141 | 52 | 271 | 0.0 | 1.0 | 0.00 | 0.00 | 0.00 | 74 | 1004.7 |
| 20260904055639 | 52 | 196 | 0.0 | 0.0 | 0.00 | 0.00 | 0.10 | 73 | 1004.7 |
| 20260904055218 | 53 | 145 | 0.0 | 0.0 | 0.00 | 0.00 | 0.10 | 71 | 1004.7 |
| 20260904054718 | 53 | 195 | 0.0 | 2.0 | 0.00 | 0.00 | 0.10 | 70 | 1005.1 |
| 20260904054218 | 53 | 124 | 1.0 | 2.0 | 0.00 | 0.00 | 0.10 | 70 | 1004.7 |
| 20260904053716 | 53 | 176 | 0.0 | 0.0 | 0.00 | 0.00 | 0.10 | 70 | 1004.7 |
| 20260904053218 | 53 | 131 | 0.0 | 1.0 | 0.00 | 0.00 | 0.10 | 70 | 1004.7 |
| 20260904052717 | 53 | 188 | 0.0 | 0.0 | 0.00 | 0.00 | 0.10 | 70 | 1004.4 |
| 20260904052218 | 54 | 193 | 0.0 | 0.0 | 0.00 | 0.00 | 0.10 | 69 | 1004.7 |
| 20260904051717 | 54 | 195 | 0.0 | 0.0 | 0.00 | 0.00 | 0.10 | 69 | 1004.4 |
| 20260904051217 | 54 | 208 | 0.0 | 0.0 | 0.00 | 0.00 | 0.10 | 70 | 1004.4 |
| 20260904050715 | 54 | 197 | 0.0 | 0.0 | 0.00 | 0.00 | 0.10 | 69 | 1004.7 |
| 20260904050215 | 55 | 193 | 0.0 | 0.0 | 0.00 | 0.00 | 0.10 | 70 | 1004.4 |
| 20260904045715 | 55 | 209 | 0.0 | 0.0 | 0.00 | 0.00 | 0.10 | 68 | 1004.4 |
| 20260904045213 | 55 | 226 | 0.0 | 0.0 | 0.00 | 0.00 | 0.10 | 68 | 1004.4 |
| 20260904044714 | 55 | 225 | 0.0 | 0.0 | 0.00 | 0.00 | 0.10 | 68 | 1004.4 |
| 20260904044214 | 55 | 223 | 0.0 | 0.0 | 0.00 | 0.00 | 0.10 | 69 | 1004.4 |
| 20260904043714 | 55 | 215 | 0.0 | 0.0 | 0.00 | 0.00 | 0.10 | 68 | 1004.4 |
| 20260904043213 | 56 | 212 | 0.0 | 0.0 | 0.00 | 0.00 | 0.10 | 68 | 1004.4 |
| 20260904042714 | 56 | 207 | 0.0 | 0.0 | 0.00 | 0.00 | 0.10 | 67 | 1004.4 |
| 20260904042214 | 56 | 226 | 0.0 | 0.0 | 0.00 | 0.00 | 0.10 | 67 | 1004.4 |
| 20260904041714 | 57 | 273 | 1.0 | 1.0 | 0.00 | 0.00 | 0.10 | 67 | 1004.4 |
| 20260904041212 | 57 | 183 | 0.0 | 0.0 | 0.00 | 0.00 | 0.10 | 68 | 1004.4 |
| 20260904040641 | 57 | 196 | 0.0 | 0.0 | 0.00 | 0.00 | 0.10 | 67 | 1004.4 |